Terminal Aerodrome Forecast
Issued by NWS Charleston, WV

Current Version | Previous Version | Graphics & Text | Print | Product List | Glossary On
Versions: 1 2 3 4 5 6 7 8 9 10 11 12 13 14 15 16 17 18 19 20 21 22 23 24 25 26 27
000
FTUS41 KRLX 231700
TAFCRW
TAF
KCRW 231739Z 2318/2418 23006KT P6SM SCT080
     FM232300 26005KT 4SM TSRA BR BKN030CB
     FM240500 01004KT 4SM TSRA BR OVC020CB
     FM240700 01004KT 5SM SHRA BR VCTS OVC015CB
     FM240900 VRB03KT 5SM SHRA BR OVC015
     FM241000 01004KT 5SM BR OVC020
     FM241300 36005KT P6SM BKN020
     FM241400 35005KT P6SM BKN025=

USA.gov is the U.S. government's official web portal to all federal, state and local government web resources and services.